Tracking 22130 objects as of 21-Jan-2021
HD Live streaming from Space Station
objects crossing your sky now

USA 313

Track USA 313 now!
10-day predictions


NORAD ID: 47295
Int'l Code: 2020-101B
Perigee: 530.6 km
Apogee: 539.2 km
Inclination: 53.0 °
Period: 95.2 minutes
Semi major axis: 6905 km
RCS: Unknown
Launch date: December 19, 2020
Source: United States (US)
Launch site: AIR FORCE EASTERN TEST RANGE (AFETR)
aabbcc
Your satellite tracking list
Your tracking list is empty




NASA's NSSDC Master Catalog

Two Line Element Set (TLE):
1 47295U 20101B   21015.14025870 0.00001500  00000-0  84353-4 0    03
2 47295  53.0025  74.7955 0006214   3.2838 356.7160 15.12757634    07
Source of the keplerian elements: McCants